Regional Weather Roundup
Issued by NWS

Home | Current Version | Previous Version | Graphics & Text | Print | Product List | Glossary On
Versions: 1 2 3 4 5 6 7 8 9 10 11 12 13 14 15 16 17 18 19 20 21 22 23 24 25 26 27 28 29 30 31 32 33 34 35 36 37 38 39 40 41 42 43 44 45 46 47 48 49 50
000
ASUS43 KIND 262259
RWRIN

WEATHER ROUNDUP FOR INDIANA
NATIONAL WEATHER SERVICE INDIANAPOLIS IN
600 PM EST FRI DEC 26 2014

NOTE: "FAIR" INDICATES FEW OR NO CLOUDS BELOW 12,000 FEET WITH NO
SIGNIFICANT WEATHER AND/OR OBSTRUCTIONS TO VISIBILITY.

* - STATION DOES NOT REPORT WEATHER SUCH AS PRECIPITATION OR FOG.

+ - STATION NOT QUALITY CONTROLLED BY THE NATIONAL WEATHER SERVICE.
    USE DATA WITH CAUTION...ESPECIALLY DEWPOINT AND RELATIVE
    HUMIDITY OBSERVATIONS.

INZ001>003-010>013-019-020-270000-
NORTHWEST INDIANA

CITY           SKY/WX    TMP DP  RH WIND       PRES   REMARKS
GARY /AIRPORT/ CLOUDY    52  37  58 S8        30.03S
KNOX *+        CLOUDY    48  38  67 SW10      30.05R
VALPARAISO     NOT AVBL

$$

LMZ046-743>745-270000-
SOUTHERN LAKE MICHIGAN

STATION/POSITION TIME  TEMP WIND        PRES
                       AIR  DIR/SP/G
                 (UTC) (F)  (DEG/KT/KT) (MB)
MICHIGAN CITY    2200   49  180/ 10/ 13   N/A

$$

INZ004-005-014>016-021>024-270000-
NORTH CENTRAL INDIANA

CITY           SKY/WX    TMP DP  RH WIND       PRES   REMARKS
ELKHART        MOCLDY    46  37  71 SW6       30.06R
GOSHEN         CLOUDY    47  40  76 S6        30.06R
SOUTH BEND     CLOUDY    49  40  71 S8        30.06R
WARSAW +       PTCLDY    45  39  81 S3        30.07S

$$

INZ006>009-017-018-025>027-270000-
NORTHEAST INDIANA

CITY           SKY/WX    TMP DP  RH WIND       PRES   REMARKS
ANGOLA *+      CLEAR     43  37  81 S6        30.07R
FORT WAYNE     MOCLDY    42  38  85 S8        30.10S

$$

INZ028-029-035-036-043>045-051>053-270000-
WEST CENTRAL INDIANA

CITY           SKY/WX    TMP DP  RH WIND       PRES   REMARKS
GREENCASTLE +  MOCLDY    43  36  75 S3        30.10S
LAFAYETTE      MOCLDY    47  40  76 S9        30.08R
TERRE HAUTE    CLOUDY    48  41  76 S8        30.10S

$$

INZ030>032-037>040-046>048-054>057-064-065-270000-
CENTRAL INDIANA

CITY           SKY/WX    TMP DP  RH WIND       PRES   REMARKS
CP ATTERBURY + MOCLDY    46  37  71 MISG      30.13S
COLUMBUS       PTCLDY    48  37  66 S7        30.13F
INDIANAPOLIS   MOCLDY    45  39  79 S7        30.10S
-EAGLE CREEK   MOCLDY    48  40  73 CALM      30.10S
KOKOMO *+      PTCLDY    46  39  76 SW10      30.09S
MT COMFORT *+  MOCLDY    46  36  66 S9        30.11S
SHELBYVILLE    MOCLDY    49  39  68 S9        30.11S

$$

INZ033-034-041-042-049-050-058-059-270000-
EAST CENTRAL INDIANA

CITY           SKY/WX    TMP DP  RH WIND       PRES   REMARKS
MUNCIE         PTCLDY    47  39  74 S8        30.11S

$$

INZ060-061-067>069-081>083-085>088-270000-
SOUTHWEST INDIANA

CITY           SKY/WX    TMP DP  RH WIND       PRES   REMARKS
EVANSVILLE     MOCLDY    53  41  63 S5        30.15R
HUNTINGBURG *+ MOCLDY    50  39  66 S3        30.15S

$$

INZ062-063-066-070>080-084-089>092-270000-
SOUTH CENTRAL AND SOUTHEAST INDIANA

CITY           SKY/WX    TMP DP  RH WIND       PRES   REMARKS
BLOOMINGTON    PTCLDY    48  40  73 S7        30.12S

$$




USA.gov is the U.S. government's official web portal to all federal, state and local government web resources and services.